Flag for Spain Weather past 2 weeks in Alicante, Spain

Now
84 °F

Passing clouds.


Feels Like: 83 °F
Forecast: 72 / 84 °F
Wind: 7 mph from South

Location: Alicante / El Altet

Current Time: Sep 17, 2014 at 2:07:08 PM

Latest Report: Sep 17, 2014 at 1:00 PM


Visibility: N/A

Pressure: 29.77 "Hg

Humidity: 35%

Dew point: 54 °F

Location of AlicanteLocation

Historic Weather in Alicante — Graph

°F

Alicante temperature yesterday

Maximum temperature yesterday: 82 °F (at 2:00 PM)
Minimum temperature yesterday: 68 °F (at 4:00 AM)
Average temperature yesterday: 76 °F

Past Weeks' High & Low Weather Summary

 TemperatureHumidityPressure
High95 °F (Sep 11, 2:00 PM)94% (Sep 3, 5:30 AM)30.01 "Hg (Sep 3, 5:30 AM)
Low66 °F (Sep 17, 7:00 AM)20% (Sep 11, 2:00 PM)29.74 "Hg (Sep 17, 5:30 AM)
Average80 °F67%29.89 "Hg
* Reported Sep 2 1:00 PM — Sep 17 1:00 PM, Alicante, Weather by CustomWeather, © 2014

Note: Actual official high and low records may vary slightly from our data, if they occured in-between our weather recording intervals... More about our weather records

Advertising

Alicante weather history for previous 24 hours

 ConditionsComfort  
Time TempWeatherWind HumidityBarometerVisibility
1:00 PM
Sep 17
84 °FPassing clouds.7 mph35%29.77 "HgN/A
12:30 PM84 °FPassing clouds.8 mph40%29.80 "HgN/A
12:00 PM82 °FPassing clouds.7 mph45%29.80 "HgN/A
11:30 AM81 °FPassing clouds.8 mph54%29.80 "HgN/A
11:00 AM81 °FPassing clouds.6 mph51%29.80 "HgN/A
10:30 AM79 °FSunny.6 mph58%29.80 "Hg10 mi
10:00 AM79 °FPassing clouds.5 mph54%29.77 "HgN/A
9:30 AM75 °FSunny.3 mph61%29.77 "Hg10 mi
9:00 AM73 °FSunny.2 mph69%29.77 "Hg10 mi
8:30 AM70 °FClear.5 mph73%29.77 "Hg10 mi
8:00 AM66 °FClear.5 mph83%29.77 "Hg10 mi
7:30 AM68 °FPassing clouds.5 mph78%29.74 "HgN/A
7:00 AM66 °FPassing clouds.7 mph88%29.74 "HgN/A
6:30 AM68 °FPassing clouds.6 mph83%29.74 "HgN/A
6:00 AM68 °FPassing clouds.6 mph88%29.74 "HgN/A
5:30 AM68 °FPassing clouds.6 mph83%29.74 "HgN/A
5:00 AM68 °FPassing clouds.5 mph94%29.77 "HgN/A
4:30 AM68 °FPassing clouds.3 mph88%29.77 "HgN/A
4:00 AM68 °FPassing clouds.3 mph94%29.77 "HgN/A
3:30 AM70 °FPassing clouds.2 mph88%29.77 "HgN/A
3:00 AM70 °FPassing clouds.1 mph88%29.77 "HgN/A
2:30 AM70 °FPassing clouds.2 mph88%29.80 "HgN/A
2:00 AM70 °FPassing clouds.No wind94%29.80 "HgN/A
1:30 AM72 °FPassing clouds.No wind88%29.80 "HgN/A
1:00 AM72 °FPassing clouds.1 mph88%29.80 "HgN/A
12:30 AM73 °FPassing clouds.1 mph83%29.80 "HgN/A
12:00 AM75 °FPassing clouds.2 mph78%29.80 "HgN/A
11:30 PM
Sep 16
73 °FPassing clouds.1 mph83%29.83 "HgN/A
11:00 PM75 °FPassing clouds.No wind78%29.83 "HgN/A
10:30 PM75 °FPassing clouds.3 mph83%29.83 "HgN/A
10:00 PM75 °FPassing clouds.No wind83%29.80 "HgN/A
9:30 PM75 °FPassing clouds.No wind83%29.80 "HgN/A
9:00 PM77 °FPartly sunny.No wind79%29.80 "HgN/A
8:30 PM79 °FPartly sunny.No wind74%29.77 "HgN/A
8:00 PM79 °FBroken clouds.1 mph74%29.77 "HgN/A
7:30 PM79 °FThunderstorms. Broken clouds.1 mph74%29.77 "HgN/A
7:00 PM79 °FPartly sunny.2 mph74%29.77 "HgN/A
6:30 PM79 °FThunderstorms. Partly sunny.5 mph79%29.77 "HgN/A
6:00 PM81 °FThunderstorms. Partly sunny.3 mph74%29.77 "Hg4 mi
5:30 PM81 °FPartly sunny.8 mph66%29.77 "HgN/A
5:00 PM79 °FPartly sunny.10 mph70%29.80 "HgN/A
4:30 PM79 °FPartly sunny.7 mph70%29.83 "HgN/A
4:00 PM79 °FPartly sunny.9 mph74%29.80 "HgN/A
3:30 PM81 °FScattered clouds.10 mph70%29.83 "HgN/A
3:00 PM81 °FScattered clouds.8 mph66%29.86 "HgN/A
2:30 PM81 °FPassing clouds.9 mph70%29.86 "HgN/A
2:00 PM82 °FPassing clouds.10 mph66%29.86 "HgN/A
Weather by CustomWeather, © 2014

See weather overviewHow to use our weather pages